Regional Weather Roundup
Issued by NWS

Home | Current Version | Previous Version | Graphics & Text | Print | Product List | Glossary On
Versions: 1 2 3 4 5 6 7 8 9 10 11 12 13 14 15 16 17 18 19 20 21 22 23 24 25 26 27 28 29 30 31 32 33 34 35 36 37 38 39 40 41 42 43 44 45 46 47 48 49 50
000
ASUS43 KLSX 041607
RWRMO

WEATHER SUMMARY FOR MISSOURI
NATIONAL WEATHER SERVICE SPRINGFIELD MO
1100 AM CDT FRI SEP 04 2015

NOTE: "FAIR" INDICATES FEW OR NO CLOUDS BELOW 12,000 FEET WITH NO
       SIGNIFICANT WEATHER AND/OR OBSTRUCTIONS TO VISIBILITY.
       CURRENT SKY AND/OR WEATHER CONDITIONS ARE NOT AVAILABLE FOR
       CHILLICOTHE AND FARMINGTON.

MOZ001>031-035>038-043-044-053-054-041700-
...NORTHERN AND WESTERN MISSOURI...

CITY           SKY/WX    TMP DP  RH WIND       PRES   REMARKS
KANSAS CTY INT MOSUNNY   86  69  56 S10       30.00R HX  90
KANSAS C DTWN  SUNNY     87  69  54 S12       29.98S HX  91
LEE`S SUMMIT   PTSUNNY   82  68  62 SW9       30.02R
ST JOSEPH      SUNNY     84  71  65 S8        29.98S
CHILLICOTHE      N/A     86  71  60 S6        30.01S HX  91
KIRKSVILLE     SUNNY     86  70  58 S9        30.04R HX  90

$$
MOZ066>068-077>081-088>096-101>105-041700-
...SOUTHWEST MISSOURI...

CITY           SKY/WX    TMP DP  RH WIND       PRES   REMARKS
SPRINGFIELD    PTSUNNY   80  70  71 S8        30.06S
JOPLIN         SUNNY     85  69  58 S12       30.04R

$$
MOZ032>034-039>042-045>050-055>058-069>072-041700-
...CENTRAL MISSOURI...

CITY           SKY/WX    TMP DP  RH WIND       PRES   REMARKS
COLUMBIA       PTSUNNY   83  72  69 S7        30.05R
JEFFERSON CITY PTSUNNY   82  70  66 SE5       30.03R
ROLLA          MOSUNNY   87  68  52 SW7       30.06R HX  90
SEDALIA        MOSUNNY   88  67  49 SW12      30.04S HX  91
WHITEMAN AFB   MOSUNNY   86  67  52 SW10      30.01S
WARRENSBURG    PTSUNNY   82  68  61 SW9       30.02S
OSAGE BEACH    SUNNY     88  70  55 SW5       30.06R HX  92

$$
MOZ051-052-059>065-041700-
...EAST CENTRAL MISSOURI...

CITY           SKY/WX    TMP DP  RH WIND       PRES   REMARKS
ST LOUIS INTL  PTSUNNY   90  70  51 SW6       30.05S HX  95
SPIRIT OF STL  MOSUNNY   87  72  60 W6        30.03S HX  93
ST CHARLES     SUNNY     88  70  55 SW7       30.03S HX  93

$$
MOZ072>076-082>087-097>100-106>115-041700-
...SOUTH CENTRAL AND SOUTHEAST MISSOURI...

CITY           SKY/WX    TMP DP  RH WIND       PRES   REMARKS
CAPE GIRARDEAU MOSUNNY   88  72  58 VRB3      30.04S HX  94
FARMINGTON     MOSUNNY   84  72  65 S7        30.10R
POPLAR BLUFF   MOSUNNY   87  72  60 CALM      30.04S HX  93
WEST PLAINS    SUNNY     84  67  56 S6        30.10R

$$



USA.gov is the U.S. government's official web portal to all federal, state and local government web resources and services.